Weather History for KCWA - September, 2014

Change the Weather History Date:

Monday, September 1, 2014

  Actual Average Record
Temperature  
Mean Temperature 66 °F -  
Max Temperature 73 °F 74 °F - (-1)
Min Temperature 59 °F 52 °F - (-1)
Cooling Degree Days 1    
Growing Degree Days 16 (Base 50)    
Moisture  
Dew Point 62 °F    
Average Humidity 87    
Maximum Humidity 100    
Minimum Humidity 60    
Precipitation  
Precipitation 0.00 in - - ()
Sea Level Pressure  
Sea Level Pressure 29.74 in    
Wind  
Wind Speed 8 mph (SW)    
Max Wind Speed 14 mph    
Max Gust Speed 21 mph    
Visibility 10 miles    
Events Rain    
Averages and records for this station are not official NWS values.
T = Trace of Precipitation, MM = Missing Value Source: NWS Daily Summary

Daily Weather History Graph

Daily Weather History Graph

Search for Another Location

Airport or City:

Trip Planner

Search our weather history database for the weather conditions in past years. The results will help you decide how hot, cold, wet, or windy it might be!

Date:

Astronomy

Sep. 01, 2014 Rise Set
Actual Time 6:20 AM CDT 7:35 PM CDT
Civil Twilight 5:50 AM CDT 8:05 PM CDT
Nautical Twilight 5:14 AM CDT 8:41 PM CDT
Astronomical Twilight 4:35 AM CDT 9:19 PM CDT
Moon 1:23 PM CDT (9/1) 11:19 PM CDT (9/1)
Length of Visible Light 14h 14m
Length of Day
13h 14m
Waxing Crescent, 42% of the Moon is Illuminated
Sep 1
Waxing Crescent
Sep 2
First Quarter
Sep 8
Full
Sep 15
Last Quarter
Sep 24
New

Hourly Weather History & Observations

Time (CDT) Temp. Dew Point Humidity Pressure Visibility Wind Dir Wind Speed Gust Speed Precip Events Conditions
12:15 AM 68.0 °F 68.0 °F 100% 29.76 in 10.0 mi ESE 6.9 mph - N/A   Scattered Clouds
12:35 AM 68.0 °F 68.0 °F 100% 29.76 in 10.0 mi ESE 8.1 mph - N/A   Mostly Cloudy
12:55 AM 68.0 °F 68.0 °F 100% 29.75 in 10.0 mi ESE 8.1 mph - N/A   Overcast
1:15 AM 68.0 °F 68.0 °F 100% 29.75 in 10.0 mi SE 9.2 mph - N/A   Mostly Cloudy
1:35 AM 69.8 °F 68.0 °F 94% 29.76 in 10.0 mi South 10.4 mph - N/A   Mostly Cloudy
2:15 AM 69.8 °F 68.0 °F 94% 29.73 in 10.0 mi South 9.2 mph - N/A   Clear
2:35 AM 69.8 °F 64.4 °F 83% 29.72 in 10.0 mi SSW 13.8 mph 19.6 mph N/A   Clear
2:55 AM 68.0 °F 62.6 °F 83% 29.71 in 10.0 mi South 12.7 mph - N/A   Clear
3:15 AM 68.0 °F 60.8 °F 78% 29.70 in 10.0 mi South 10.4 mph - N/A   Scattered Clouds
3:35 AM 68.0 °F 60.8 °F 78% 29.71 in 10.0 mi SSW 10.4 mph - N/A   Mostly Cloudy
3:55 AM 68.0 °F 59.0 °F 73% 29.71 in 10.0 mi SSW 8.1 mph - N/A   Mostly Cloudy
4:15 AM 68.0 °F 59.0 °F 73% 29.71 in 10.0 mi SSW 8.1 mph - N/A   Mostly Cloudy
4:35 AM 66.2 °F 59.0 °F 78% 29.70 in 10.0 mi SSW 4.6 mph - N/A   Scattered Clouds
4:55 AM 64.4 °F 60.8 °F 88% 29.70 in 10.0 mi SSW 6.9 mph - N/A Rain Light Rain
5:15 AM 64.4 °F 60.8 °F 88% 29.70 in 10.0 mi West 4.6 mph - N/A Rain Light Rain
5:35 AM 64.4 °F 60.8 °F 88% 29.70 in 10.0 mi SSW 3.5 mph - N/A   Mostly Cloudy
5:45 AM 64.4 °F 60.8 °F 88% 29.67 in 10.0 mi South 3.5 mph - N/A   Light Drizzle
6:45 AM 62.6 °F 62.6 °F 100% 29.68 in 10.0 mi South 5.8 mph - N/A   Scattered Clouds
7:55 AM 64.4 °F 62.6 °F 94% 29.71 in 10.0 mi SSW 9.2 mph - N/A   Overcast
8:50 AM 64.4 °F 62.6 °F 94% 29.70 in 10.0 mi SSW 4.6 mph - N/A   Overcast
9:45 AM 62.6 °F 62.6 °F 100% 29.70 in 5.0 mi SW 10.4 mph - N/A Rain Light Rain
10:45 AM 64.4 °F 64.4 °F 100% 29.70 in 7.0 mi South 6.9 mph - N/A   Overcast
11:45 AM 66.2 °F 64.4 °F 94% 29.69 in 10.0 mi SSW 8.1 mph - N/A   Overcast
1:45 PM 69.8 °F 66.2 °F 88% 29.69 in 10.0 mi WSW 12.7 mph - N/A   Mostly Cloudy
2:45 PM 71.6 °F 64.4 °F 78% 29.70 in 10.0 mi West 12.7 mph 19.6 mph N/A   Mostly Cloudy
4:45 PM 73.4 °F 60.8 °F 65% 29.72 in 10.0 mi West 12.7 mph 20.7 mph N/A   Scattered Clouds
5:50 PM 71.6 °F 57.2 °F 60% 29.74 in 10.0 mi West 13.8 mph 19.6 mph N/A   Clear
6:50 PM 68.0 °F 59.0 °F 73% 29.75 in 10.0 mi West 6.9 mph - N/A   Clear
7:53 PM 62.6 °F 59.0 °F 88% 29.78 in 10.0 mi WSW 6.9 mph - N/A   Scattered Clouds
9:47 PM 62.6 °F 59.0 °F 88% 29.81 in 10.0 mi West 6.9 mph - N/A   Clear
10:15 PM 59.0 °F 57.2 °F 94% 29.81 in 10.0 mi West 5.8 mph - N/A   Clear
10:35 PM 60.8 °F 57.2 °F 88% 29.81 in 10.0 mi West 4.6 mph - N/A   Clear
10:55 PM 59.0 °F 55.4 °F 88% 29.80 in 10.0 mi West 4.6 mph - N/A   Clear
11:15 PM 59.0 °F 55.4 °F 88% 29.82 in 7.0 mi West 4.6 mph - N/A   Clear
11:35 PM 59.0 °F 55.4 °F 88% 29.82 in 10.0 mi West 5.8 mph - N/A   Clear
11:55 PM 59.0 °F 55.4 °F 88% 29.84 in 10.0 mi Calm Calm - N/A   Clear